KC3ROS Weather Reports


time (UTC)temp
F
wind
direction
speed
knots
gust
knots
rain 1hr
in
rain 24hr
in
rain mn
in
humidity
%
barometer
mb
20260504030138 49 148 0.9 2.6 0.00 0.00 0.00 56 1012.2
20260504025634 49 198 1.7 2.6 0.00 0.00 0.00 56 1012.3
20260504025131 49 180 2.6 5.2 0.00 0.00 0.00 55 1012.3
20260504024628 49 142 0.0 1.7 0.00 0.00 0.00 56 1012.3
20260504024125 49 145 0.0 1.7 0.00 0.00 0.00 55 1012.2
20260504023622 49 129 0.0 1.7 0.00 0.00 0.00 56 1012.4
20260504023118 50 113 0.9 1.7 0.00 0.00 0.00 55 1012.3
20260504022614 50 160 0.9 1.7 0.00 0.00 0.00 55 1012.4
20260504022110 50 177 1.7 2.6 0.00 0.00 0.00 55 1012.4
20260504021608 50 160 0.9 2.6 0.00 0.00 0.00 55 1012.4
20260504021105 50 206 0.9 2.6 0.00 0.00 0.00 54 1012.4
20260504020602 50 124 0.9 1.7 0.00 0.00 0.00 53 1012.3
20260504020058 50 153 0.0 1.7 0.00 0.00 0.00 53 1012.5
20260504015554 51 86 0.0 1.7 0.00 0.00 0.00 52 1012.5
20260504015050 51 147 0.0 2.6 0.00 0.00 0.00 51 1012.3
20260504014547 51 177 0.0 2.6 0.00 0.00 0.00 51 1012.5
20260504014044 51 198 1.7 2.6 0.00 0.00 0.00 52 1012.3
20260504013541 51 123 0.9 2.6 0.00 0.00 0.00 51 1012.4
20260504013038 51 165 0.0 2.6 0.00 0.00 0.00 51 1012.1
20260504012536 51 123 0.9 1.7 0.00 0.00 0.00 50 1012.3
20260504012033 52 89 0.0 2.6 0.00 0.00 0.00 51 1012.3
20260504011529 52 194 0.9 2.6 0.00 0.00 0.00 50 1012.3
20260504011020 52 211 0.9 2.6 0.00 0.00 0.00 51 1012.3
20260504010516 52 131 0.9 3.5 0.00 0.00 0.00 50 1012.3
20260504010012 52 158 0.9 3.5 0.00 0.00 0.00 49 1012.2
20260504005509 52 253 1.7 2.6 0.00 0.00 0.00 50 1012.3
20260504005007 52 255 1.7 1.7 0.00 0.00 0.00 50 1012.3
20260504004504 53 199 1.7 2.6 0.00 0.00 0.00 49 1012.2
20260504004001 53 188 0.9 2.6 0.00 0.00 0.00 49 1012.1
20260504003456 53 260 0.0 3.5 0.00 0.00 0.00 48 1012.3
20260504002954 53 89 0.0 6.1 0.00 0.00 0.00 48 1012.0
20260504002451 53 177 2.6 4.3 0.00 0.00 0.00 48 1012.2
20260504001948 53 185 2.6 5.2 0.00 0.00 0.00 48 1012.2
20260504001445 54 200 1.7 2.6 0.00 0.00 0.00 47 1012.2
20260504000942 54 200 0.9 4.3 0.00 0.00 0.00 47 1012.2
20260504000439 54 121 1.7 6.1 0.00 0.00 0.00 46 1012.3
20260503235937 55 202 3.5 6.1 0.00 0.00 0.00 46 1012.2
20260503235434 55 273 3.5 7.8 0.00 0.00 0.00 45 1012.1
20260503234931 55 236 3.5 6.1 0.00 0.00 0.00 45 1012.2
20260503234429 55 35 0.0 6.1 0.00 0.00 0.00 46 1012.3
20260503233927 55 102 2.6 4.3 0.00 0.00 0.00 45 1012.2
20260503233423 55 248 2.6 7.0 0.00 0.00 0.00 45 1012.1
20260503232920 55 112 0.9 7.8 0.00 0.00 0.00 45 1012.2
20260503232417 55 145 0.9 7.0 0.00 0.00 0.00 45 1012.3
20260503231915 56 265 1.7 10.4 0.00 0.00 0.00 44 1012.2
20260503231412 55 291 1.7 5.2 0.00 0.00 0.00 46 1012.4
20260503230908 56 352 1.7 4.3 0.00 0.00 0.00 45 1012.4
20260503230404 56 209 1.7 7.0 0.00 0.00 0.00 44 1012.3
20260503225902 56 183 1.7 7.0 0.00 0.00 0.00 45 1012.3
20260503225358 57 97 2.6 4.3 0.00 0.00 0.00 44 1012.3
20260503224854 57 180 2.6 6.1 0.00 0.00 0.00 45 1012.4
20260503224351 57 214 1.7 8.7 0.00 0.00 0.00 45 1012.2
20260503223849 57 228 2.6 7.8 0.00 0.00 0.00 43 1012.4
20260503223347 57 147 2.6 10.4 0.00 0.00 0.00 42 1012.5
20260503222842 57 129 3.5 7.8 0.00 0.00 0.00 42 1012.5
20260503222341 58 293 1.7 6.1 0.00 0.00 0.00 45 1012.3
20260503221838 57 268 7.0 10.4 0.00 0.00 0.00 40 1012.4
20260503221337 57 84 1.7 10.4 0.00 0.00 0.00 43 1012.3
20260503220833 57 172 1.7 11.3 0.00 0.00 0.00 43 1012.3
20260503220330 57 225 4.3 11.3 0.00 0.00 0.00 42 1012.4
20260503215827 58 212 1.7 9.6 0.00 0.00 0.00 40 1012.2
20260503215324 59 175 3.5 12.2 0.00 0.00 0.00 38 1012.3
20260503214822 59 198 5.2 7.8 0.00 0.00 0.00 38 1012.4
20260503214318 57 177 1.7 6.1 0.00 0.00 0.00 43 1012.5
20260503213815 57 155 4.3 10.4 0.00 0.00 0.00 40 1012.3
20260503213313 59 283 3.5 7.8 0.00 0.00 0.00 38 1012.3
20260503212809 60 173 1.7 12.2 0.00 0.00 0.00 37 1012.1
20260503212308 61 183 2.6 6.1 0.00 0.00 0.00 40 1012.2
20260503211805 59 223 2.6 3.5 0.00 0.00 0.00 37 1012.1
20260503211302 59 86 1.7 4.3 0.00 0.00 0.00 41 1012.2
20260503210802 60 244 3.5 5.2 0.00 0.00 0.00 43 1012.3
20260503210300 57 272 2.6 7.8 0.00 0.00 0.00 43 1012.4
20260503205754 57 320 3.5 7.8 0.00 0.00 0.00 39 1012.3
20260503205251 59 268 5.2 13.9 0.00 0.00 0.00 40 1012.2
20260503204748 57 219 1.7 5.2 0.00 0.00 0.00 41 1012.5
20260503204246 58 272 2.6 7.8 0.00 0.00 0.00 43 1012.6
20260503203743 59 192 3.5 14.8 0.00 0.00 0.00 39 1012.5
20260503203240 57 337 0.9 5.2 0.00 0.00 0.00 43 1012.5
20260503202737 57 217 2.6 7.0 0.00 0.00 0.00 41 1012.7
20260503202235 57 214 2.6 6.1 0.00 0.00 0.00 44 1012.7
20260503201732 57 172 2.6 9.6 0.00 0.00 0.00 40 1012.7
20260503201230 59 200 5.2 12.2 0.00 0.00 0.00 39 1012.9
20260503200726 59 209 3.5 7.0 0.00 0.00 0.00 37 1012.9
20260503200223 56 207 4.3 9.6 0.00 0.00 0.00 40 1013.0
20260503195719 58 268 4.3 9.6 0.00 0.00 0.00 43 1012.9
20260503195216 58 219 2.6 7.8 0.00 0.00 0.00 41 1013.3
20260503194714 61 250 4.3 9.6 0.00 0.00 0.00 37 1013.1
20260503194210 60 357 1.7 5.2 0.00 0.00 0.00 40 1013.2
20260503193706 57 111 1.7 7.0 0.00 0.00 0.00 41 1013.3
20260503193202 58 207 3.5 16.5 0.00 0.00 0.00 39 1013.3
20260503192657 60 172 1.7 7.8 0.00 0.00 0.00 42 1013.5
20260503192153 57 310 2.6 14.8 0.00 0.00 0.00 41 1013.5
20260503191650 57 246 3.5 12.2 0.00 0.00 0.00 41 1013.7
20260503191147 57 181 5.2 8.7 0.00 0.00 0.00 41 1013.8
20260503190644 58 267 4.3 7.0 0.00 0.00 0.00 41 1013.8
20260503190141 57 252 3.5 7.0 0.00 0.00 0.00 43 1013.8
20260503185637 59 165 1.7 11.3 0.00 0.00 0.00 39 1013.8
20260503185133 58 309 2.6 5.2 0.00 0.00 0.00 40 1013.7
20260503184628 56 244 4.3 13.0 0.00 0.00 0.00 43 1014.0
20260503184125 55 246 12.2 12.2 0.00 0.00 0.00 45 1014.3
20260503183621 55 311 3.5 7.8 0.00 0.00 0.00 49 1013.8
20260503183119 55 63 3.5 6.1 0.00 0.00 0.00 45 1014.3
20260503182617 58 238 3.5 7.0 0.00 0.00 0.00 43 1014.0
20260503182115 57 207 2.6 9.6 0.00 0.00 0.00 40 1014.4
20260503181611 57 229 3.5 5.2 0.00 0.00 0.00 45 1014.3
20260503181108 57 183 2.6 7.8 0.00 0.00 0.00 40 1014.4
20260503180605 56 262 7.0 13.9 0.00 0.00 0.00 41 1014.2
20260503180103 58 263 7.0 13.9 0.00 0.00 0.00 41 1014.3
20260503175600 56 264 2.6 7.0 0.00 0.00 0.00 40 1014.5
20260503175057 55 297 2.6 7.0 0.00 0.00 0.00 48 1014.6
20260503174553 54 200 1.7 5.2 0.00 0.00 0.00 47 1014.7
20260503174050 56 230 5.2 7.0 0.00 0.00 0.00 41 1014.8
20260503173545 54 267 2.6 7.8 0.00 0.00 0.00 45 1014.8
20260503173042 55 155 5.2 9.6 0.00 0.00 0.00 44 1014.8
20260503172539 56 223 3.5 12.2 0.00 0.00 0.00 45 1014.8
20260503172036 55 124 0.0 4.3 0.00 0.00 0.00 46 1014.8
20260503171533 54 177 2.6 9.6 0.00 0.00 0.00 45 1015.1
20260503171030 56 222 4.3 8.7 0.00 0.00 0.00 49 1015.0
20260503170526 53 243 4.3 5.2 0.00 0.00 0.00 49 1014.8
20260503150913 49 211 7.0 8.7 0.00 0.00 0.00 47 1015.8
20260503150409 50 196 2.6 13.0 0.00 0.00 0.00 45 1015.8
20260503131303 43 260 2.6 10.4 0.00 0.00 0.00 74 1016.5
20260503130800 42 147 1.7 2.6 0.00 0.00 0.00 75 1016.5
20260503130257 41 139 2.6 6.1 0.00 0.00 0.00 77 1016.5
20260503110645 33 134 1.7 3.5 0.00 0.00 0.00 95 1015.4
20260503110142 33 125 2.6 3.5 0.00 0.00 0.00 95 1015.5
20260503100109 33 101 0.9 2.6 0.00 0.00 0.00 94 1014.9
20260503081451 33 139 1.7 1.7 0.00 0.00 0.00 94 1014.7
20260503080948 33 126 0.0 1.7 0.00 0.00 0.00 94 1014.7
20260503080439 33 122 0.0 1.7 0.00 0.00 0.00 94 1014.8
20260503072916 33 164 0.9 1.7 0.00 0.00 0.00 93 1014.5
20260503072413 33 89 0.0 1.7 0.00 0.00 0.00 93 1014.5
20260503071909 34 106 0.0 0.9 0.00 0.00 0.00 93 1014.7
20260503071402 34 120 0.0 1.7 0.00 0.00 0.00 93 1014.5
20260503070857 34 140 0.0 1.7 0.00 0.00 0.00 93 1014.6
20260503070355 34 124 0.0 0.9 0.00 0.00 0.00 93 1014.4
20260503060321 35 32 0.0 0.9 0.00 0.00 0.00 87 1014.8
20260503054809 35 135 0.0 0.9 0.00 0.00 0.00 87 1014.9
20260503054304 36 269 0.0 1.7 0.00 0.00 0.00 87 1014.8
20260503053802 36 147 0.0 0.9 0.00 0.00 0.00 87 1014.8
20260503053301 36 269 0.0 0.9 0.00 0.00 0.00 87 1014.8
20260503052756 36 32 0.0 0.0 0.00 0.00 0.00 88 1015.0
20260503052254 36 45 0.0 0.9 0.00 0.00 0.00 88 1014.9
20260503051748 36 44 0.0 0.9 0.00 0.00 0.00 88 1014.9
20260503051246 36 222 0.0 0.9 0.00 0.00 0.00 88 1015.1
20260503050742 36 245 0.0 1.7 0.00 0.00 0.00 88 1015.1
20260503050233 36 78 0.9 1.7 0.00 0.00 0.00 89 1015.1
20260503045731 36 286 0.0 1.7 0.00 0.00 0.00 89 1015.2
20260503045229 36 269 0.0 0.9 0.00 0.00 0.00 89 1015.0
20260503044725 36 279 0.0 0.9 0.00 0.00 0.00 89 1015.0
20260503044222 36 49 0.0 1.7 0.00 0.00 0.00 89 1015.2
20260503043719 36 283 0.0 0.9 0.00 0.00 0.00 88 1015.0
20260503043216 36 25 0.0 1.7 0.00 0.00 0.00 89 1015.3
20260503042712 36 287 0.0 0.0 0.00 0.00 0.00 89 1015.3
20260503042209 36 229 0.0 0.9 0.00 0.00 0.00 88 1015.2
20260503041705 36 31 0.0 0.9 0.00 0.00 0.00 88 1015.1
20260503041203 36 32 0.0 0.9 0.00 0.00 0.00 88 1015.0
20260503040700 36 336 0.0 1.7 0.00 0.00 0.00 87 1015.2
20260503040157 36 38 0.0 0.9 0.00 0.00 0.00 87 1015.2
20260503035654 36 31 0.0 1.7 0.00 0.01 0.01 86 1015.1
20260503035152 36 76 0.0 0.9 0.00 0.01 0.01 86 1015.1
20260503034649 37 44 0.0 0.9 0.00 0.01 0.01 84 1015.2
20260503034146 37 44 0.0 1.7 0.00 0.01 0.01 84 1015.2
20260503033643 37 33 1.7 1.7 0.00 0.01 0.01 83 1015.1
20260503033140 37 55 0.0 0.0 0.00 0.01 0.01 82 1015.1
20260503032639 37 55 0.0 1.7 0.00 0.01 0.01 81 1015.2
20260503032137 38 25 1.7 1.7 0.00 0.01 0.01 79 1015.0
20260503031634 38 40 0.0 1.7 0.00 0.01 0.01 79 1015.2
20260503031132 38 35 0.0 2.6 0.00 0.01 0.01 78 1015.2
20260503030627 38 336 0.0 1.7 0.00 0.01 0.01 79 1015.2